| time (UTC) | temp C | wind direction | speed KPH | gust KPH | rain 1hr cm | rain 24hr cm | rain mn cm | humidity % | barometer mb |
| 20260506121625 | 8 | 6 | 1.6 | 6.4 | 0.15 | 3.02 | 2.74 | 99 | 1007.0 |
| 20260506121125 | 8 | 32 | 3.2 | 6.4 | 0.18 | 3.02 | 2.74 | 98 | 1007.0 |
| 20260506120624 | 8 | 354 | 3.2 | 11.3 | 0.18 | 3.00 | 2.72 | 98 | 1006.9 |
| 20260506120124 | 8 | 23 | 3.2 | 9.7 | 0.20 | 3.00 | 2.72 | 99 | 1006.9 |
| 20260506115624 | 8 | 79 | 3.2 | 9.7 | 0.23 | 3.00 | 2.72 | 99 | 1006.8 |
| 20260506115124 | 8 | 54 | 3.2 | 8.0 | 0.23 | 3.00 | 2.72 | 99 | 1006.8 |
| 20260506114623 | 8 | 27 | 3.2 | 11.3 | 0.23 | 2.97 | 2.69 | 99 | 1006.7 |
| 20260506114123 | 8 | 23 | 3.2 | 11.3 | 0.23 | 3.00 | 2.69 | 99 | 1006.7 |
| 20260506113623 | 8 | 13 | 3.2 | 9.7 | 0.20 | 2.97 | 2.67 | 99 | 1006.7 |
| 20260506113122 | 8 | 44 | 3.2 | 6.4 | 0.23 | 2.97 | 2.67 | 99 | 1006.7 |
| 20260506112622 | 8 | 14 | 3.2 | 6.4 | 0.20 | 2.95 | 2.64 | 99 | 1006.8 |
| 20260506112122 | 8 | 55 | 3.2 | 8.0 | 0.20 | 2.92 | 2.62 | 99 | 1006.7 |
| 20260506111622 | 8 | 13 | 3.2 | 6.4 | 0.18 | 2.90 | 2.59 | 99 | 1006.7 |
| 20260506111121 | 8 | 358 | 1.6 | 9.7 | 0.15 | 2.87 | 2.57 | 99 | 1006.7 |
| 20260506110621 | 8 | 18 | 1.6 | 4.8 | 0.15 | 2.84 | 2.54 | 99 | 1006.6 |
| 20260506110121 | 8 | 54 | 1.6 | 6.4 | 0.13 | 2.82 | 2.51 | 99 | 1006.6 |
| 20260506105620 | 8 | 2 | 1.6 | 9.7 | 0.13 | 2.79 | 2.49 | 99 | 1006.6 |
| 20260506105120 | 8 | 135 | 1.6 | 4.8 | 0.13 | 2.79 | 2.49 | 99 | 1006.6 |
| 20260506104620 | 8 | 23 | 3.2 | 9.7 | 0.13 | 2.77 | 2.46 | 99 | 1006.6 |
| 20260506104120 | 8 | 31 | 3.2 | 11.3 | 0.13 | 2.77 | 2.46 | 99 | 1006.5 |
| 20260506103619 | 8 | 5 | 3.2 | 6.4 | 0.15 | 2.77 | 2.46 | 99 | 1006.5 |
| 20260506103119 | 8 | 44 | 3.2 | 8.0 | 0.13 | 2.74 | 2.44 | 99 | 1006.4 |
| 20260506102619 | 8 | 32 | 3.2 | 6.4 | 0.13 | 2.74 | 2.44 | 99 | 1006.4 |
| 20260506102118 | 8 | 36 | 3.2 | 6.4 | 0.13 | 2.72 | 2.41 | 99 | 1006.3 |
| 20260506101618 | 8 | 30 | 3.2 | 4.8 | 0.15 | 2.72 | 2.41 | 99 | 1006.3 |
| 20260506101118 | 8 | 23 | 3.2 | 4.8 | 0.15 | 2.72 | 2.41 | 99 | 1006.2 |
| 20260506100618 | 8 | 34 | 3.2 | 9.7 | 0.15 | 2.69 | 2.39 | 99 | 1006.2 |
| 20260506100117 | 8 | 29 | 3.2 | 12.9 | 0.15 | 2.69 | 2.39 | 99 | 1006.2 |
| 20260506095617 | 8 | 2 | 3.2 | 4.8 | 0.13 | 2.67 | 2.36 | 99 | 1006.1 |
| 20260506095117 | 8 | 40 | 3.2 | 11.3 | 0.15 | 2.67 | 2.36 | 99 | 1006.1 |
| 20260506094617 | 8 | 76 | 3.2 | 9.7 | 0.13 | 2.64 | 2.34 | 99 | 1006.0 |
| 20260506094116 | 8 | 355 | 3.2 | 9.7 | 0.13 | 2.64 | 2.34 | 99 | 1006.0 |
| 20260506093616 | 8 | 24 | 3.2 | 11.3 | 0.13 | 2.62 | 2.31 | 99 | 1006.0 |
| 20260506093116 | 8 | 21 | 4.8 | 14.5 | 0.13 | 2.62 | 2.31 | 99 | 1006.0 |
| 20260506092615 | 8 | 16 | 4.8 | 11.3 | 0.13 | 2.62 | 2.31 | 99 | 1006.0 |
| 20260506092115 | 8 | 17 | 4.8 | 14.5 | 0.10 | 2.59 | 2.29 | 98 | 1006.0 |
| 20260506091615 | 8 | 16 | 4.8 | 12.9 | 0.10 | 2.57 | 2.26 | 99 | 1005.8 |
| 20260506091115 | 8 | 30 | 4.8 | 9.7 | 0.10 | 2.57 | 2.26 | 99 | 1005.8 |
| 20260506090614 | 8 | 18 | 3.2 | 9.7 | 0.08 | 2.54 | 2.24 | 99 | 1005.8 |
| 20260506090114 | 9 | 352 | 3.2 | 11.3 | 0.08 | 2.54 | 2.24 | 99 | 1005.8 |
| 20260506085614 | 9 | 23 | 3.2 | 9.7 | 0.08 | 2.54 | 2.24 | 99 | 1005.7 |
| 20260506085113 | 9 | 15 | 3.2 | 11.3 | 0.05 | 2.51 | 2.21 | 99 | 1005.7 |
| 20260506084613 | 8 | 21 | 4.8 | 11.3 | 0.08 | 2.51 | 2.21 | 99 | 1005.7 |
| 20260506084113 | 8 | 42 | 4.8 | 9.7 | 0.08 | 2.51 | 2.21 | 99 | 1005.6 |
| 20260506083613 | 9 | 33 | 3.2 | 14.5 | 0.05 | 2.49 | 2.18 | 99 | 1005.6 |
| 20260506083112 | 9 | 13 | 3.2 | 6.4 | 0.08 | 2.49 | 2.18 | 99 | 1005.6 |
| 20260506082612 | 9 | 77 | 3.2 | 6.4 | 0.08 | 2.49 | 2.18 | 99 | 1005.5 |
| 20260506082112 | 9 | 19 | 3.2 | 8.0 | 0.08 | 2.49 | 2.18 | 99 | 1005.5 |
| 20260506081611 | 9 | 31 | 3.2 | 11.3 | 0.08 | 2.46 | 2.16 | 99 | 1005.5 |
| 20260506081111 | 9 | 29 | 1.6 | 6.4 | 0.10 | 2.46 | 2.16 | 99 | 1005.5 |
| 20260506080611 | 9 | 20 | 3.2 | 4.8 | 0.10 | 2.46 | 2.16 | 99 | 1005.5 |
| 20260506080111 | 9 | 38 | 4.8 | 9.7 | 0.13 | 2.46 | 2.16 | 99 | 1005.4 |
| 20260506073109 | 9 | 94 | 1.6 | 11.3 | 0.15 | 2.41 | 2.11 | 99 | 1005.3 |
| 20260506072609 | 9 | 31 | 1.6 | 9.7 | 0.18 | 2.41 | 2.11 | 99 | 1005.3 |
| 20260506072108 | 9 | 23 | 1.6 | 3.2 | 0.20 | 2.41 | 2.11 | 99 | 1005.3 |
| 20260506071608 | 9 | 23 | 1.6 | 4.8 | 0.18 | 2.39 | 2.08 | 99 | 1005.2 |
| 20260506071108 | 9 | 11 | 0.0 | 1.6 | 0.18 | 2.36 | 2.06 | 99 | 1005.2 |
| 20260506070608 | 9 | 11 | 1.6 | 4.8 | 0.18 | 2.36 | 2.06 | 99 | 1005.2 |
| 20260506070107 | 9 | 36 | 0.0 | 8.0 | 0.18 | 2.34 | 2.03 | 99 | 1005.2 |
| 20260506062105 | 9 | 346 | 3.2 | 8.0 | 0.20 | 2.49 | 1.91 | 99 | 1005.1 |
| 20260506061605 | 9 | 38 | 3.2 | 6.4 | 0.23 | 2.49 | 1.91 | 99 | 1005.1 |
| 20260506061104 | 9 | 25 | 3.2 | 8.0 | 0.23 | 2.46 | 1.88 | 99 | 1005.0 |
| 20260506060604 | 8 | 34 | 3.2 | 8.0 | 0.23 | 2.46 | 1.88 | 98 | 1005.0 |
| 20260506060104 | 8 | 15 | 3.2 | 11.3 | 0.23 | 2.44 | 1.85 | 99 | 1005.0 |
| 20260506051101 | 9 | 24 | 3.2 | 11.3 | 0.18 | 2.72 | 1.65 | 98 | 1004.9 |
| 20260506050601 | 9 | 5 | 1.6 | 9.7 | 0.18 | 2.72 | 1.65 | 98 | 1004.9 |
| 20260506045100 | 9 | 314 | 1.6 | 4.8 | 0.13 | 2.64 | 1.57 | 98 | 1004.9 |
| 20260506044600 | 9 | 2 | 3.2 | 6.4 | 0.13 | 2.62 | 1.55 | 98 | 1004.8 |
| 20260506044059 | 9 | 24 | 3.2 | 6.4 | 0.13 | 2.69 | 1.55 | 98 | 1004.8 |
| 20260506043559 | 9 | 34 | 3.2 | 8.0 | 0.13 | 2.67 | 1.52 | 98 | 1004.8 |
| 20260506043059 | 9 | 23 | 3.2 | 6.4 | 0.13 | 2.67 | 1.52 | 98 | 1004.8 |
| 20260506042558 | 9 | 22 | 3.2 | 4.8 | 0.10 | 2.64 | 1.50 | 98 | 1004.8 |
| 20260506042058 | 9 | 323 | 3.2 | 4.8 | 0.10 | 2.64 | 1.50 | 98 | 1004.8 |
| 20260506041558 | 9 | 25 | 3.2 | 8.0 | 0.13 | 2.64 | 1.50 | 98 | 1004.7 |
| 20260506041058 | 9 | 2 | 3.2 | 3.2 | 0.10 | 2.62 | 1.47 | 98 | 1004.8 |
| 20260506040557 | 9 | 15 | 1.6 | 6.4 | 0.13 | 2.62 | 1.47 | 98 | 1004.8 |
| 20260506040057 | 9 | 335 | 1.6 | 3.2 | 0.10 | 2.59 | 1.45 | 98 | 1004.8 |
| 20260506035557 | 9 | 304 | 1.6 | 6.4 | 0.13 | 2.59 | 1.45 | 98 | 1004.8 |
| 20260506035056 | 9 | 21 | 1.6 | 4.8 | 0.15 | 2.59 | 1.45 | 98 | 1004.8 |
| 20260506034556 | 9 | 337 | 1.6 | 12.9 | 0.13 | 2.57 | 1.42 | 98 | 1004.8 |
| 20260506034056 | 9 | 33 | 1.6 | 3.2 | 0.15 | 2.69 | 1.42 | 98 | 1004.8 |
| 20260506033556 | 9 | 21 | 1.6 | 6.4 | 0.13 | 2.67 | 1.40 | 98 | 1004.8 |
| 20260506033055 | 9 | 15 | 1.6 | 6.4 | 0.15 | 2.67 | 1.40 | 98 | 1004.9 |
| 20260506032555 | 9 | 28 | 3.2 | 4.8 | 0.15 | 2.67 | 1.40 | 98 | 1004.9 |
| 20260506032055 | 9 | 304 | 3.2 | 8.0 | 0.18 | 2.67 | 1.40 | 98 | 1004.9 |
| 20260506031554 | 9 | 21 | 3.2 | 16.1 | 0.15 | 2.64 | 1.37 | 98 | 1004.9 |
| 20260506031054 | 9 | 91 | 4.8 | 6.4 | 0.18 | 2.64 | 1.37 | 98 | 1005.0 |
| 20260506030554 | 9 | 344 | 3.2 | 11.3 | 0.18 | 2.62 | 1.35 | 98 | 1005.0 |
| 20260506030054 | 9 | 57 | 3.2 | 16.1 | 0.20 | 2.62 | 1.35 | 98 | 1005.0 |
| 20260506025553 | 9 | 12 | 3.2 | 12.9 | 0.20 | 2.59 | 1.32 | 98 | 1005.0 |
| 20260506025053 | 9 | 6 | 3.2 | 12.9 | 0.20 | 2.57 | 1.30 | 98 | 1005.1 |
| 20260506024553 | 9 | 34 | 3.2 | 8.0 | 0.23 | 2.57 | 1.30 | 98 | 1005.1 |
| 20260506024053 | 9 | 43 | 3.2 | 6.4 | 0.23 | 2.57 | 1.27 | 98 | 1005.2 |
| 20260506023552 | 9 | 22 | 1.6 | 6.4 | 0.25 | 2.57 | 1.27 | 98 | 1005.2 |
| 20260506023052 | 9 | 57 | 1.6 | 8.0 | 0.25 | 2.54 | 1.24 | 98 | 1005.2 |
| 20260506022552 | 9 | 32 | 3.2 | 9.7 | 0.25 | 2.54 | 1.24 | 98 | 1005.2 |
| 20260506022051 | 10 | 2 | 3.2 | 17.7 | 0.25 | 2.51 | 1.22 | 98 | 1005.2 |
| 20260506021551 | 10 | 15 | 1.6 | 6.4 | 0.28 | 2.51 | 1.22 | 98 | 1005.2 |
| 20260506021051 | 10 | 8 | 3.2 | 4.8 | 0.28 | 2.49 | 1.19 | 98 | 1005.2 |
| 20260506020551 | 10 | 16 | 3.2 | 8.0 | 0.28 | 2.46 | 1.17 | 98 | 1005.2 |
| 20260506020050 | 10 | 54 | 3.2 | 11.3 | 0.28 | 2.44 | 1.14 | 98 | 1005.2 |
| 20260506015550 | 10 | 9 | 3.2 | 11.3 | 0.25 | 2.41 | 1.12 | 98 | 1005.2 |
| 20260506015050 | 10 | 92 | 3.2 | 12.9 | 0.25 | 2.39 | 1.09 | 98 | 1005.3 |
| 20260506014549 | 10 | 50 | 3.2 | 12.9 | 0.23 | 2.36 | 1.07 | 98 | 1005.3 |
| 20260506014049 | 10 | 13 | 3.2 | 4.8 | 0.20 | 2.34 | 1.04 | 98 | 1005.3 |
| 20260506013549 | 10 | 329 | 3.2 | 6.4 | 0.20 | 2.31 | 1.02 | 98 | 1005.3 |
| 20260506013049 | 10 | 21 | 3.2 | 9.7 | 0.20 | 2.29 | 0.99 | 98 | 1005.4 |
| 20260506012548 | 10 | 8 | 3.2 | 11.3 | 0.20 | 2.29 | 0.99 | 98 | 1005.4 |
| 20260506012048 | 10 | 314 | 3.2 | 9.7 | 0.20 | 2.26 | 0.97 | 98 | 1005.4 |
| 20260506011548 | 10 | 29 | 3.2 | 9.7 | 0.18 | 2.24 | 0.94 | 98 | 1005.4 |
| 20260506011047 | 10 | 34 | 3.2 | 6.4 | 0.18 | 2.21 | 0.91 | 98 | 1005.5 |
| 20260506010547 | 10 | 37 | 3.2 | 12.9 | 0.18 | 2.18 | 0.89 | 98 | 1005.5 |
| 20260506010047 | 10 | 9 | 3.2 | 9.7 | 0.18 | 2.16 | 0.86 | 98 | 1005.5 |
| 20260506005547 | 10 | 327 | 3.2 | 9.7 | 0.18 | 2.16 | 0.86 | 98 | 1005.5 |
| 20260506005046 | 10 | 6 | 4.8 | 11.3 | 0.18 | 2.13 | 0.84 | 98 | 1005.6 |
| 20260506004546 | 10 | 33 | 4.8 | 11.3 | 0.20 | 2.13 | 0.84 | 98 | 1005.6 |
| 20260506004046 | 10 | 35 | 3.2 | 8.0 | 0.23 | 2.13 | 0.84 | 98 | 1005.6 |
| 20260506003545 | 10 | 17 | 3.2 | 8.0 | 0.25 | 2.11 | 0.81 | 98 | 1005.7 |
| 20260506003045 | 10 | 71 | 3.2 | 9.7 | 0.28 | 2.08 | 0.79 | 98 | 1005.6 |
| 20260506002545 | 10 | 40 | 4.8 | 11.3 | 0.33 | 2.08 | 0.79 | 98 | 1005.7 |
| 20260506002045 | 10 | 21 | 3.2 | 11.3 | 0.38 | 2.06 | 0.76 | 98 | 1005.8 |
| 20260506001544 | 10 | 71 | 3.2 | 11.3 | 0.41 | 2.06 | 0.76 | 98 | 1005.9 |
| 20260506001044 | 10 | 21 | 3.2 | 4.8 | 0.41 | 2.03 | 0.74 | 98 | 1005.9 |
| 20260506000544 | 10 | 34 | 4.8 | 9.7 | 0.43 | 2.01 | 0.71 | 98 | 1005.9 |
| 20260506000043 | 10 | 27 | 4.8 | 16.1 | 0.43 | 1.98 | 0.69 | 98 | 1006.0 |
| 20260505235543 | 10 | 51 | 3.2 | 12.9 | 0.46 | 1.98 | 0.69 | 98 | 1006.0 |
| 20260505235043 | 10 | 19 | 3.2 | 9.7 | 0.48 | 1.96 | 0.66 | 98 | 1006.1 |
| 20260505234543 | 10 | 36 | 4.8 | 8.0 | 0.51 | 1.93 | 0.64 | 98 | 1006.1 |
| 20260505234042 | 10 | 65 | 4.8 | 14.5 | 0.53 | 1.91 | 0.61 | 97 | 1006.2 |
| 20260505233542 | 10 | 4 | 3.2 | 11.3 | 0.51 | 1.85 | 0.56 | 97 | 1006.2 |
| 20260505233042 | 10 | 344 | 3.2 | 11.3 | 0.48 | 1.80 | 0.51 | 97 | 1006.3 |
| 20260505232541 | 10 | 4 | 3.2 | 9.7 | 0.48 | 1.75 | 0.46 | 97 | 1006.3 |
| 20260505232041 | 10 | 72 | 4.8 | 9.7 | 0.43 | 1.68 | 0.38 | 97 | 1006.3 |
| 20260505231541 | 10 | 344 | 4.8 | 14.5 | 0.46 | 1.65 | 0.36 | 97 | 1006.3 |
| 20260505231041 | 10 | 29 | 3.2 | 9.7 | 0.48 | 1.63 | 0.33 | 97 | 1006.4 |
| 20260505230540 | 10 | 36 | 3.2 | 9.7 | 0.46 | 1.57 | 0.28 | 97 | 1006.3 |
| 20260505230040 | 10 | 32 | 3.2 | 6.4 | 0.46 | 1.55 | 0.25 | 97 | 1006.4 |
| 20260505225540 | 10 | 317 | 3.2 | 6.4 | 0.43 | 1.52 | 0.23 | 97 | 1006.5 |
| 20260505225039 | 10 | 350 | 3.2 | 6.4 | 0.41 | 1.47 | 0.18 | 97 | 1006.5 |
| 20260505224539 | 10 | 11 | 3.2 | 8.0 | 0.36 | 1.42 | 0.13 | 97 | 1006.5 |
| 20260505224039 | 10 | 18 | 3.2 | 9.7 | 0.30 | 1.37 | 0.08 | 97 | 1006.5 |
| 20260505223539 | 10 | 15 | 3.2 | 4.8 | 0.28 | 1.35 | 0.05 | 97 | 1006.5 |
| 20260505223038 | 10 | 26 | 3.2 | 11.3 | 0.28 | 1.32 | 0.03 | 97 | 1006.5 |
| 20260505222538 | 10 | 18 | 3.2 | 12.9 | 0.23 | 1.27 | 1.27 | 97 | 1006.6 |
| 20260505222038 | 10 | 48 | 3.2 | 9.7 | 0.20 | 1.24 | 1.24 | 97 | 1006.6 |
| 20260505221538 | 10 | 29 | 3.2 | 8.0 | 0.18 | 1.19 | 1.19 | 97 | 1006.6 |
| 20260505221037 | 10 | 358 | 4.8 | 12.9 | 0.13 | 1.14 | 1.14 | 97 | 1006.6 |
| 20260505220537 | 10 | 46 | 3.2 | 12.9 | 0.10 | 1.12 | 1.12 | 97 | 1006.7 |
| 20260505220037 | 10 | 14 | 3.2 | 4.8 | 0.08 | 1.09 | 1.09 | 97 | 1006.7 |
| 20260505215536 | 10 | 29 | 3.2 | 9.7 | 0.08 | 1.09 | 1.09 | 97 | 1006.8 |
| 20260505215036 | 10 | 36 | 3.2 | 6.4 | 0.05 | 1.07 | 1.07 | 97 | 1006.8 |
| 20260505214536 | 10 | 13 | 3.2 | 6.4 | 0.05 | 1.07 | 1.07 | 97 | 1006.9 |
| 20260505214036 | 10 | 6 | 4.8 | 9.7 | 0.05 | 1.07 | 1.07 | 97 | 1006.9 |
| 20260505213535 | 10 | 40 | 4.8 | 9.7 | 0.05 | 1.07 | 1.07 | 97 | 1006.9 |
| 20260505213035 | 10 | 2 | 3.2 | 9.7 | 0.03 | 1.04 | 1.04 | 97 | 1007.0 |
| 20260505212535 | 10 | 0 | 1.6 | 6.4 | 0.03 | 1.04 | 1.04 | 97 | 1007.0 |
| 20260505212034 | 10 | 2 | 3.2 | 6.4 | 0.03 | 1.04 | 1.04 | 97 | 1007.0 |
| 20260505211534 | 10 | 22 | 3.2 | 8.0 | 0.00 | 1.02 | 1.02 | 97 | 1007.0 |
| 20260505211034 | 10 | 42 | 3.2 | 6.4 | 0.00 | 1.02 | 1.02 | 97 | 1007.1 |
| 20260505210534 | 10 | 1 | 3.2 | 6.4 | 0.00 | 1.02 | 1.02 | 96 | 1007.1 |
| 20260505210033 | 10 | 39 | 3.2 | 9.7 | 0.00 | 1.02 | 1.02 | 96 | 1007.1 |
| 20260505205533 | 10 | 67 | 3.2 | 9.7 | 0.00 | 1.02 | 1.02 | 96 | 1007.1 |
| 20260505205033 | 10 | 28 | 4.8 | 11.3 | 0.00 | 1.02 | 1.02 | 96 | 1007.1 |
| 20260505204532 | 10 | 39 | 3.2 | 14.5 | 0.00 | 1.02 | 1.02 | 96 | 1007.2 |
| 20260505204032 | 10 | 44 | 3.2 | 6.4 | 0.00 | 1.04 | 1.02 | 96 | 1007.2 |
| 20260505203532 | 10 | 38 | 3.2 | 9.7 | 0.00 | 1.04 | 1.02 | 96 | 1007.2 |
| 20260505203032 | 10 | 335 | 3.2 | 6.4 | 0.00 | 1.04 | 1.02 | 96 | 1007.2 |
| 20260505202531 | 10 | 18 | 3.2 | 9.7 | 0.00 | 1.04 | 1.02 | 96 | 1007.2 |
| 20260505202031 | 10 | 4 | 3.2 | 4.8 | 0.00 | 1.04 | 1.02 | 96 | 1007.2 |
| 20260505201531 | 10 | 357 | 3.2 | 6.4 | 0.00 | 1.04 | 1.02 | 96 | 1007.2 |
| 20260505201030 | 10 | 49 | 3.2 | 9.7 | 0.00 | 1.04 | 1.02 | 96 | 1007.2 |
| 20260505200530 | 10 | 13 | 3.2 | 11.3 | 0.00 | 1.04 | 1.02 | 96 | 1007.1 |
| 20260505200030 | 10 | 28 | 3.2 | 4.8 | 0.00 | 1.04 | 1.02 | 96 | 1007.2 |
| 20260505195530 | 10 | 24 | 3.2 | 9.7 | 0.00 | 1.04 | 1.02 | 96 | 1007.3 |
| 20260505195029 | 10 | 59 | 1.6 | 6.4 | 0.00 | 1.04 | 1.02 | 96 | 1007.3 |
| 20260505194529 | 10 | 8 | 1.6 | 9.7 | 0.00 | 1.04 | 1.02 | 96 | 1007.2 |
| 20260505194029 | 10 | 50 | 3.2 | 4.8 | 0.00 | 1.07 | 1.02 | 96 | 1007.3 |
| 20260505193528 | 10 | 46 | 3.2 | 12.9 | 0.00 | 1.07 | 1.02 | 96 | 1007.2 |
| 20260505193028 | 10 | 36 | 1.6 | 6.4 | 0.00 | 1.07 | 1.02 | 96 | 1007.2 |
| 20260505192528 | 10 | 55 | 1.6 | 6.4 | 0.00 | 1.07 | 1.02 | 95 | 1007.2 |
| 20260505192028 | 10 | 19 | 3.2 | 4.8 | 0.00 | 1.07 | 1.02 | 95 | 1007.2 |
| 20260505191527 | 10 | 32 | 1.6 | 9.7 | 0.00 | 1.07 | 1.02 | 95 | 1007.2 |
| 20260505191027 | 10 | 29 | 1.6 | 4.8 | 0.00 | 1.07 | 1.02 | 95 | 1007.2 |
| 20260505190527 | 10 | 29 | 1.6 | 4.8 | 0.00 | 1.07 | 1.02 | 95 | 1007.2 |
| 20260505190026 | 10 | 349 | 1.6 | 3.2 | 0.00 | 1.07 | 1.02 | 95 | 1007.2 |
| 20260505185526 | 10 | 5 | 3.2 | 9.7 | 0.00 | 1.07 | 1.02 | 95 | 1007.1 |
| 20260505185026 | 10 | 27 | 3.2 | 11.3 | 0.00 | 1.07 | 1.02 | 95 | 1007.1 |
| 20260505184526 | 10 | 44 | 3.2 | 14.5 | 0.00 | 1.07 | 1.02 | 95 | 1007.1 |
| 20260505184025 | 11 | 15 | 3.2 | 11.3 | 0.00 | 1.09 | 1.02 | 95 | 1007.1 |
| 20260505183525 | 11 | 23 | 3.2 | 8.0 | 0.00 | 1.09 | 1.02 | 95 | 1007.1 |
| 20260505183025 | 11 | 69 | 3.2 | 6.4 | 0.00 | 1.09 | 1.02 | 95 | 1007.1 |
| 20260505182524 | 11 | 3 | 3.2 | 11.3 | 0.00 | 1.09 | 1.02 | 95 | 1007.1 |
| 20260505182024 | 11 | 58 | 3.2 | 8.0 | 0.00 | 1.09 | 1.02 | 95 | 1007.0 |
| 20260505181524 | 11 | 29 | 3.2 | 12.9 | 0.00 | 1.09 | 1.02 | 95 | 1007.1 |
| 20260505181024 | 11 | 20 | 3.2 | 9.7 | 0.00 | 1.09 | 1.02 | 95 | 1007.1 |
| 20260505180523 | 11 | 17 | 3.2 | 11.3 | 0.00 | 1.09 | 1.02 | 95 | 1007.1 |
| 20260505180023 | 11 | 13 | 1.6 | 4.8 | 0.00 | 1.09 | 1.02 | 95 | 1007.1 |
| 20260505175523 | 11 | 57 | 3.2 | 6.4 | 0.00 | 1.09 | 1.02 | 95 | 1007.2 |
| 20260505175023 | 11 | 15 | 3.2 | 6.4 | 0.00 | 1.09 | 1.02 | 95 | 1007.2 |
| 20260505174522 | 11 | 48 | 3.2 | 6.4 | 0.00 | 1.09 | 1.02 | 95 | 1007.2 |
| 20260505174022 | 11 | 44 | 3.2 | 8.0 | 0.00 | 1.09 | 1.02 | 95 | 1007.2 |
| 20260505173522 | 11 | 23 | 1.6 | 8.0 | 0.00 | 1.09 | 1.02 | 95 | 1007.3 |
| 20260505173021 | 11 | 2 | 1.6 | 4.8 | 0.00 | 1.09 | 1.02 | 95 | 1007.3 |
| 20260505172521 | 11 | 42 | 3.2 | 4.8 | 0.00 | 1.09 | 1.02 | 95 | 1007.3 |
| 20260505172021 | 11 | 52 | 3.2 | 11.3 | 0.00 | 1.09 | 1.02 | 95 | 1007.3 |
| 20260505171521 | 11 | 17 | 3.2 | 6.4 | 0.00 | 1.09 | 1.02 | 95 | 1007.3 |
| 20260505171020 | 11 | 42 | 3.2 | 12.9 | 0.00 | 1.09 | 1.02 | 95 | 1007.3 |
| 20260505170520 | 11 | 27 | 3.2 | 4.8 | 0.00 | 1.09 | 1.02 | 95 | 1007.3 |
| 20260505170020 | 11 | 38 | 3.2 | 8.0 | 0.00 | 1.09 | 1.02 | 95 | 1007.3 |
| 20260505165519 | 11 | 18 | 3.2 | 6.4 | 0.00 | 1.09 | 1.02 | 95 | 1007.3 |
| 20260505165019 | 11 | 336 | 1.6 | 8.0 | 0.00 | 1.09 | 1.02 | 95 | 1007.4 |
| 20260505164519 | 11 | 20 | 1.6 | 6.4 | 0.00 | 1.09 | 1.02 | 95 | 1007.3 |
| 20260505164019 | 11 | 53 | 3.2 | 4.8 | 0.00 | 1.09 | 1.02 | 95 | 1007.3 |
| 20260505163518 | 11 | 348 | 3.2 | 8.0 | 0.00 | 1.09 | 1.02 | 95 | 1007.3 |
| 20260505163018 | 11 | 76 | 3.2 | 6.4 | 0.00 | 1.09 | 1.02 | 95 | 1007.3 |
| 20260505162518 | 11 | 345 | 3.2 | 6.4 | 0.00 | 1.09 | 1.02 | 95 | 1007.4 |
| 20260505162017 | 11 | 8 | 3.2 | 11.3 | 0.00 | 1.09 | 1.02 | 95 | 1007.4 |
| 20260505161517 | 11 | 33 | 3.2 | 9.7 | 0.00 | 1.09 | 1.02 | 95 | 1007.4 |
| 20260505161017 | 11 | 32 | 3.2 | 8.0 | 0.00 | 1.09 | 1.02 | 95 | 1007.4 |
| 20260505160517 | 11 | 29 | 4.8 | 6.4 | 0.00 | 1.09 | 1.02 | 96 | 1007.4 |
| 20260505153015 | 11 | 11 | 3.2 | 8.0 | 0.00 | 1.09 | 1.02 | 96 | 1007.7 |
| 20260505152514 | 11 | 34 | 3.2 | 9.7 | 0.00 | 1.09 | 1.02 | 96 | 1007.7 |
| 20260505152014 | 11 | 15 | 3.2 | 3.2 | 0.00 | 1.09 | 1.02 | 96 | 1007.7 |
| 20260505151514 | 11 | 77 | 4.8 | 11.3 | 0.00 | 1.09 | 1.02 | 96 | 1007.8 |
| 20260505151013 | 11 | 40 | 3.2 | 9.7 | 0.00 | 1.09 | 1.02 | 96 | 1007.8 |
| 20260505150513 | 11 | 11 | 4.8 | 6.4 | 0.00 | 1.09 | 1.02 | 96 | 1007.9 |
| 20260505140510 | 11 | 23 | 4.8 | 19.3 | 0.00 | 1.09 | 1.02 | 97 | 1008.1 |
| 20260505125006 | 11 | 9 | 3.2 | 11.3 | 0.03 | 1.09 | 1.02 | 98 | 1008.5 |
| 20260505124505 | 11 | 45 | 1.6 | 11.3 | 0.03 | 1.09 | 1.02 | 98 | 1008.4 |
| 20260505124005 | 11 | 68 | 1.6 | 6.4 | 0.03 | 1.09 | 1.02 | 98 | 1008.5 |
| 20260505123505 | 11 | 68 | 1.6 | 4.8 | 0.03 | 1.09 | 1.02 | 98 | 1008.5 |
| 20260505123004 | 11 | 25 | 3.2 | 6.4 | 0.03 | 1.09 | 1.02 | 98 | 1008.5 |
| 20260505122504 | 11 | 45 | 3.2 | 9.7 | 0.03 | 1.09 | 1.02 | 98 | 1008.5 |
| 20260505122004 | 11 | 9 | 3.2 | 6.4 | 0.03 | 1.09 | 1.02 | 98 | 1008.6 |